Time,TemperatureF,DewpointF,PressureIn,WindDirection,WindDirectionDegrees,WindSpeedMPH,WindSpeedGustMPH,Humidity,HourlyPrecipIn,Conditions,Clouds,dailyrainin,SolarRadiationWatts/m^2,SoftwareType,DateUTC
2013-01-27 00:00:00,62.9,59.6,30.18,East,86,0.0,1.0,89,0.00,,SKC,0.00,74.00,VWS V14.01,2013-01-27 05:00:00,
2013-01-27 00:01:00,62.9,59.6,30.18,East,86,0.0,1.0,89,0.00,,SKC,0.00,74.00,VWS V14.01,2013-01-27 05:01:00,
2013-01-27 00:02:00,62.9,59.6,30.18,East,86,1.0,1.0,89,0.00,,SKC,0.00,74.00,VWS V14.01,2013-01-27 05:02:00,
2013-01-27 00:07:00,62.9,59.6,30.18,East,86,0.0,2.0,89,0.00,,SKC,0.00,74.00,VWS V14.01,2013-01-27 05:07:00,
2013-01-27 00:12:00,62.8,59.5,30.18,East,86,0.0,1.0,89,0.00,,SKC,0.00,74.00,VWS V14.01,2013-01-27 05:12:00,
2013-01-27 00:17:00,63.0,59.7,30.18,East,86,0.0,1.0,89,0.00,,SKC,0.00,74.00,VWS V14.01,2013-01-27 05:17:00,
2013-01-27 00:22:00,62.9,59.6,30.18,East,86,0.0,1.0,89,0.00,,SKC,0.00,74.00,VWS V14.01,2013-01-27 05:22:00,
2013-01-27 00:27:00,62.8,59.8,30.18,East,86,0.0,1.0,90,0.00,,SKC,0.00,74.00,VWS V14.01,2013-01-27 05:27:00,
2013-01-27 00:32:00,62.6,59.6,30.18,East,86,0.0,1.0,90,0.00,,SKC,0.00,74.00,VWS V14.01,2013-01-27 05:32:00,
2013-01-27 00:37:00,62.4,59.4,30.18,East,86,0.0,0.0,90,0.00,,SKC,0.00,74.00,VWS V14.01,2013-01-27 05:37:00,
2013-01-27 00:42:00,62.4,59.4,30.18,East,86,0.0,0.0,90,0.00,,SKC,0.00,74.00,VWS V14.01,2013-01-27 05:42:00,
2013-01-27 00:47:00,62.3,59.3,30.18,East,86,0.0,0.0,90,0.00,,SKC,0.00,74.00,VWS V14.01,2013-01-27 05:47:00,
2013-01-27 00:52:00,62.3,59.3,30.18,East,86,0.0,1.0,90,0.00,,SKC,0.00,74.00,VWS V14.01,2013-01-27 05:52:00,
2013-01-27 00:57:00,62.3,59.3,30.18,East,86,0.0,1.0,90,0.00,,SKC,0.00,74.00,VWS V14.01,2013-01-27 05:57:00,
2013-01-27 01:02:00,62.1,59.1,30.19,East,86,0.0,0.0,90,0.00,,SKC,0.00,74.00,VWS V14.01,2013-01-27 06:02:00,
2013-01-27 01:07:00,62.2,59.2,30.19,East,86,0.0,1.0,90,0.00,,SKC,0.00,74.00,VWS V14.01,2013-01-27 06:07:00,
2013-01-27 01:12:00,62.1,59.1,30.18,East,86,0.0,1.0,90,0.00,,SKC,0.00,74.00,VWS V14.01,2013-01-27 06:12:00,
2013-01-27 01:17:00,62.2,59.2,30.18,East,86,0.0,1.0,90,0.00,,SKC,0.00,74.00,VWS V14.01,2013-01-27 06:17:00,
2013-01-27 01:22:00,62.3,59.3,30.18,East,86,0.0,0.0,90,0.00,,SKC,0.00,74.00,VWS V14.01,2013-01-27 06:22:00,
2013-01-27 01:27:00,62.5,59.5,30.18,East,86,0.0,1.0,90,0.00,,SKC,0.00,74.00,VWS V14.01,2013-01-27 06:27:00,
2013-01-27 01:32:00,62.6,59.6,30.18,East,86,0.0,0.0,90,0.00,,SKC,0.00,74.00,VWS V14.01,2013-01-27 06:32:00,
2013-01-27 01:37:00,62.5,59.5,30.18,East,86,0.0,1.0,90,0.00,,SKC,0.00,74.00,VWS V14.01,2013-01-27 06:37:00,
2013-01-27 01:42:00,62.6,59.6,30.18,East,86,0.0,1.0,90,0.00,,SKC,0.00,74.00,VWS V14.01,2013-01-27 06:42:00,
2013-01-27 01:47:00,62.6,59.6,30.18,East,86,0.0,0.0,90,0.00,,SKC,0.00,74.00,VWS V14.01,2013-01-27 06:47:00,
2013-01-27 01:52:00,62.7,59.7,30.18,East,86,0.0,0.0,90,0.00,,SKC,0.00,74.00,VWS V14.01,2013-01-27 06:52:00,
2013-01-27 01:57:00,62.8,59.8,30.18,East,86,0.0,0.0,90,0.00,,SKC,0.00,74.00,VWS V14.01,2013-01-27 06:57:00,
2013-01-27 02:02:00,62.8,59.8,30.18,East,86,0.0,1.0,90,0.00,,SKC,0.00,74.00,VWS V14.01,2013-01-27 07:02:00,
2013-01-27 02:07:00,62.8,59.8,30.18,East,86,0.0,0.0,90,0.00,,SKC,0.00,74.00,VWS V14.01,2013-01-27 07:07:00,
2013-01-27 02:13:00,62.9,59.9,30.18,East,86,0.0,0.0,90,0.00,,SKC,0.00,74.00,VWS V14.01,2013-01-27 07:13:00,
2013-01-27 02:18:00,62.7,59.7,30.18,East,86,0.0,1.0,90,0.00,,SKC,0.00,74.00,VWS V14.01,2013-01-27 07:18:00,
2013-01-27 02:23:00,62.7,59.7,30.18,East,86,0.0,0.0,90,0.00,,SKC,0.00,74.00,VWS V14.01,2013-01-27 07:23:00,
2013-01-27 02:28:00,62.7,59.4,30.18,East,86,0.0,0.0,89,0.00,,SKC,0.00,74.00,VWS V14.01,2013-01-27 07:28:00,
2013-01-27 02:33:00,62.7,59.4,30.18,East,86,0.0,0.0,89,0.00,,SKC,0.00,74.00,VWS V14.01,2013-01-27 07:33:00,
2013-01-27 02:38:00,62.7,59.7,30.17,East,86,0.0,0.0,90,0.00,,SKC,0.00,74.00,VWS V14.01,2013-01-27 07:38:00,
2013-01-27 02:43:00,62.6,59.6,30.18,East,86,0.0,0.0,90,0.00,,SKC,0.00,74.00,VWS V14.01,2013-01-27 07:43:00,
2013-01-27 02:48:00,62.3,59.3,30.17,East,86,0.0,0.0,90,0.00,,SKC,0.00,74.00,VWS V14.01,2013-01-27 07:48:00,
2013-01-27 02:53:00,62.1,59.1,30.18,East,86,0.0,0.0,90,0.00,,SKC,0.00,74.00,VWS V14.01,2013-01-27 07:53:00,
2013-01-27 02:58:00,61.9,58.9,30.18,East,86,0.0,0.0,90,0.00,,SKC,0.00,74.00,VWS V14.01,2013-01-27 07:58:00,
2013-01-27 03:03:00,61.8,58.8,30.18,East,86,0.0,0.0,90,0.00,,SKC,0.00,74.00,VWS V14.01,2013-01-27 08:03:00,
2013-01-27 03:08:00,61.8,58.8,30.18,East,86,0.0,1.0,90,0.00,,SKC,0.00,74.00,VWS V14.01,2013-01-27 08:08:00,
2013-01-27 03:13:00,61.9,59.5,30.18,East,86,0.0,0.0,92,0.00,,SKC,0.00,74.00,VWS V14.01,2013-01-27 08:13:00,
2013-01-27 03:18:00,61.9,58.9,30.17,East,86,1.0,1.0,90,0.00,,SKC,0.00,74.00,VWS V14.01,2013-01-27 08:18:00,
2013-01-27 03:23:00,62.1,59.1,30.17,East,86,0.0,0.0,90,0.00,,SKC,0.00,74.00,VWS V14.01,2013-01-27 08:23:00,
2013-01-27 03:28:00,62.0,59.0,30.17,East,86,0.0,0.0,90,0.00,,SKC,0.00,74.00,VWS V14.01,2013-01-27 08:28:00,
2013-01-27 03:33:00,62.0,59.0,30.17,East,86,0.0,0.0,90,0.00,,SKC,0.00,74.00,VWS V14.01,2013-01-27 08:33:00,
2013-01-27 03:38:00,61.9,58.9,30.17,East,86,0.0,0.0,90,0.00,,SKC,0.00,74.00,VWS V14.01,2013-01-27 08:38:00,
2013-01-27 03:43:00,62.0,59.0,30.17,East,86,0.0,0.0,90,0.00,,SKC,0.00,74.00,VWS V14.01,2013-01-27 08:43:00,
2013-01-27 03:48:00,62.1,59.1,30.17,East,86,0.0,0.0,90,0.00,,SKC,0.00,74.00,VWS V14.01,2013-01-27 08:48:00,
2013-01-27 03:53:00,62.1,59.1,30.17,East,86,0.0,0.0,90,0.00,,SKC,0.00,74.00,VWS V14.01,2013-01-27 08:53:00,
2013-01-27 03:58:00,62.0,59.0,30.17,East,86,0.0,0.0,90,0.00,,SKC,0.00,74.00,VWS V14.01,2013-01-27 08:58:00,
2013-01-27 04:03:00,61.8,58.8,30.17,East,86,0.0,0.0,90,0.00,,SKC,0.00,74.00,VWS V14.01,2013-01-27 09:03:00,
2013-01-27 04:08:00,61.8,58.8,30.17,East,86,0.0,0.0,90,0.00,,SKC,0.00,74.00,VWS V14.01,2013-01-27 09:08:00,
2013-01-27 04:13:00,61.8,58.8,30.17,East,86,0.0,0.0,90,0.00,,SKC,0.00,74.00,VWS V14.01,2013-01-27 09:13:00,
2013-01-27 04:18:00,61.8,58.8,30.17,East,86,1.0,1.0,90,0.00,,SKC,0.00,74.00,VWS V14.01,2013-01-27 09:18:00,
2013-01-27 04:23:00,61.8,58.8,30.17,East,86,1.0,1.0,90,0.00,,SKC,0.00,74.00,VWS V14.01,2013-01-27 09:23:00,
2013-01-27 04:28:00,61.7,58.7,30.17,East,86,0.0,2.0,90,0.00,,SKC,0.00,74.00,VWS V14.01,2013-01-27 09:28:00,
2013-01-27 04:33:00,61.9,58.9,30.17,East,86,0.0,0.0,90,0.00,,SKC,0.00,74.00,VWS V14.01,2013-01-27 09:33:00,
2013-01-27 04:38:00,62.1,58.8,30.17,East,86,1.0,2.0,89,0.00,,SKC,0.00,74.00,VWS V14.01,2013-01-27 09:38:00,
2013-01-27 04:43:00,62.2,58.9,30.17,East,86,2.0,2.0,89,0.00,,SKC,0.00,74.00,VWS V14.01,2013-01-27 09:43:00,
2013-01-27 04:48:00,62.4,58.8,30.17,East,86,2.0,3.0,88,0.00,,SKC,0.00,74.00,VWS V14.01,2013-01-27 09:48:00,
2013-01-27 04:53:00,62.4,58.8,30.17,NE,34,1.0,3.0,88,0.00,,SKC,0.00,74.00,VWS V14.01,2013-01-27 09:53:00,
2013-01-27 04:58:00,62.4,58.8,30.17,NE,34,2.0,2.0,88,0.00,,SKC,0.00,74.00,VWS V14.01,2013-01-27 09:58:00,
2013-01-27 05:03:00,62.4,58.8,30.17,NNE,32,1.0,2.0,88,0.00,,SKC,0.00,74.00,VWS V14.01,2013-01-27 10:03:00,
2013-01-27 05:08:00,62.4,58.5,30.17,NNE,32,2.0,2.0,87,0.00,,SKC,0.00,74.00,VWS V14.01,2013-01-27 10:08:00,
2013-01-27 05:13:00,62.5,58.6,30.17,NNE,32,1.0,2.0,87,0.00,,SKC,0.00,74.00,VWS V14.01,2013-01-27 10:13:00,
2013-01-27 05:18:00,62.4,58.5,30.17,NNE,32,1.0,2.0,87,0.00,,SKC,0.00,74.00,VWS V14.01,2013-01-27 10:18:00,
2013-01-27 05:23:00,62.4,58.5,30.17,NNE,32,1.0,2.0,87,0.00,,SKC,0.00,74.00,VWS V14.01,2013-01-27 10:23:00,
2013-01-27 05:28:00,62.4,58.5,30.17,NNE,32,1.0,1.0,87,0.00,,SKC,0.00,74.00,VWS V14.01,2013-01-27 10:28:00,
2013-01-27 05:33:00,62.4,58.5,30.17,NNE,32,3.0,3.0,87,0.00,,SKC,0.00,74.00,VWS V14.01,2013-01-27 10:33:00,
2013-01-27 05:38:00,62.5,58.6,30.17,NNE,32,1.0,3.0,87,0.00,,SKC,0.00,74.00,VWS V14.01,2013-01-27 10:38:00,
2013-01-27 05:43:00,62.7,58.8,30.17,NNE,32,2.0,3.0,87,0.00,,SKC,0.00,74.00,VWS V14.01,2013-01-27 10:43:00,
2013-01-27 05:48:00,62.9,58.7,30.18,NNE,32,1.0,1.0,86,0.00,,SKC,0.00,74.00,VWS V14.01,2013-01-27 10:48:00,
2013-01-27 05:53:00,63.0,58.8,30.18,NNE,32,2.0,3.0,86,0.00,,SKC,0.00,74.00,VWS V14.01,2013-01-27 10:53:00,
2013-01-27 05:58:00,63.1,58.5,30.18,NNE,31,2.0,5.0,85,0.00,,SKC,0.00,74.00,VWS V14.01,2013-01-27 10:58:00,
2013-01-27 06:03:00,63.4,58.8,30.18,NNE,31,3.0,4.0,85,0.00,,SKC,0.00,74.00,VWS V14.01,2013-01-27 11:03:00,
2013-01-27 06:08:00,63.5,58.9,30.19,NNE,31,4.0,4.0,85,0.00,,SKC,0.00,74.00,VWS V14.01,2013-01-27 11:08:00,
2013-01-27 06:12:00,63.6,58.7,30.19,NNE,30,5.0,5.0,84,0.00,,SKC,0.00,74.00,VWS V14.01,2013-01-27 11:12:00,
2013-01-27 06:17:00,63.7,58.5,30.19,North,11,4.0,4.0,83,0.00,,SKC,0.00,74.00,VWS V14.01,2013-01-27 11:17:00,
2013-01-27 06:22:00,63.7,58.5,30.19,North,11,3.0,4.0,83,0.00,,SKC,0.00,74.00,VWS V14.01,2013-01-27 11:22:00,
2013-01-27 06:27:00,63.8,58.5,30.19,North,11,3.0,4.0,83,0.00,,SKC,0.00,74.00,VWS V14.01,2013-01-27 11:27:00,
2013-01-27 06:32:00,63.8,58.5,30.20,North,11,3.0,3.0,83,0.00,,SKC,0.00,74.00,VWS V14.01,2013-01-27 11:32:00,
2013-01-27 06:37:00,63.8,58.5,30.20,North,11,3.0,3.0,83,0.00,,SKC,0.00,74.00,VWS V14.01,2013-01-27 11:37:00,
2013-01-27 06:42:00,63.8,58.5,30.20,North,11,3.0,4.0,83,0.00,,SKC,0.00,74.00,VWS V14.01,2013-01-27 11:42:00,
2013-01-27 06:47:00,63.8,58.5,30.20,North,11,3.0,4.0,83,0.00,,SKC,0.00,74.00,VWS V14.01,2013-01-27 11:47:00,
2013-01-27 06:52:00,63.7,58.5,30.20,North,11,3.0,3.0,83,0.00,,SKC,0.00,74.00,VWS V14.01,2013-01-27 11:52:00,
2013-01-27 06:57:00,63.6,58.7,30.20,North,11,2.0,3.0,84,0.00,,SKC,0.00,74.00,VWS V14.01,2013-01-27 11:57:00,
2013-01-27 07:02:00,63.7,58.8,30.20,North,11,3.0,3.0,84,0.00,,FEW050,0.00,76.00,VWS V14.01,2013-01-27 12:02:00,
2013-01-27 07:07:00,63.8,58.9,30.20,North,11,2.0,3.0,84,0.00,,FEW050,0.00,77.00,VWS V14.01,2013-01-27 12:07:00,
2013-01-27 07:12:00,63.7,58.8,30.20,North,11,4.0,4.0,84,0.00,,FEW050,0.00,79.00,VWS V14.01,2013-01-27 12:12:00,
2013-01-27 07:17:00,63.8,58.9,30.20,North,11,4.0,4.0,84,0.00,,FEW050,0.00,83.00,VWS V14.01,2013-01-27 12:17:00,
2013-01-27 07:22:00,63.8,58.9,30.20,North,11,4.0,4.0,84,0.00,,FEW050,0.00,88.00,VWS V14.01,2013-01-27 12:22:00,
2013-01-27 07:27:00,63.9,59.0,30.21,North,10,4.0,4.0,84,0.00,,FEW050,0.00,91.00,VWS V14.01,2013-01-27 12:27:00,
2013-01-27 07:32:00,63.9,59.0,30.21,North,10,3.0,5.0,84,0.00,,FEW050,0.00,102.00,VWS V14.01,2013-01-27 12:32:00,
2013-01-27 07:37:00,64.0,59.1,30.21,North,10,3.0,4.0,84,0.00,,FEW050,0.00,114.00,VWS V14.01,2013-01-27 12:37:00,
2013-01-27 07:42:00,64.2,58.9,30.21,North,10,4.0,4.0,83,0.00,,FEW050,0.00,116.00,VWS V14.01,2013-01-27 12:42:00,
2013-01-27 07:47:00,64.4,59.1,30.22,North,10,2.0,4.0,83,0.00,,FEW050,0.00,137.00,VWS V14.01,2013-01-27 12:47:00,
2013-01-27 07:52:00,64.6,59.0,30.21,North,10,2.0,4.0,82,0.00,,FEW050,0.00,125.00,VWS V14.01,2013-01-27 12:52:00,
2013-01-27 07:57:00,64.6,59.0,30.22,North,10,3.0,3.0,82,0.00,,FEW050,0.00,130.00,VWS V14.01,2013-01-27 12:57:00,
2013-01-27 08:02:00,64.7,59.1,30.22,North,10,2.0,3.0,82,0.00,,FEW050,0.00,181.00,VWS V14.01,2013-01-27 13:02:00,
2013-01-27 08:07:00,65.0,59.4,30.22,North,9,1.0,3.0,82,0.00,,FEW050,0.00,118.00,VWS V14.01,2013-01-27 13:07:00,
2013-01-27 08:12:00,65.0,59.0,30.22,North,10,2.0,3.0,81,0.00,,FEW050,0.00,123.00,VWS V14.01,2013-01-27 13:12:00,
2013-01-27 08:17:00,65.2,59.6,30.22,North,10,3.0,3.0,82,0.00,,FEW050,0.00,153.00,VWS V14.01,2013-01-27 13:17:00,
2013-01-27 08:22:00,65.5,59.5,30.22,North,10,2.0,2.0,81,0.00,,FEW050,0.00,244.00,VWS V14.01,2013-01-27 13:22:00,
2013-01-27 08:27:00,65.8,60.2,30.23,North,10,1.0,2.0,82,0.00,,FEW050,0.00,255.00,VWS V14.01,2013-01-27 13:27:00,
2013-01-27 08:32:00,66.0,60.0,30.23,North,9,0.0,1.0,81,0.00,,FEW050,0.00,272.00,VWS V14.01,2013-01-27 13:32:00,
2013-01-27 08:37:00,66.6,60.2,30.23,North,10,0.0,0.0,80,0.00,,FEW050,0.00,279.00,VWS V14.01,2013-01-27 13:37:00,
2013-01-27 08:42:00,67.0,60.6,30.23,North,10,0.0,0.0,80,0.00,,FEW050,0.00,309.00,VWS V14.01,2013-01-27 13:42:00,
2013-01-27 08:47:00,67.3,60.9,30.24,North,10,0.0,0.0,80,0.00,,FEW050,0.00,329.00,VWS V14.01,2013-01-27 13:47:00,
2013-01-27 08:52:00,67.5,60.8,30.23,North,10,0.0,2.0,79,0.00,,FEW050,0.00,346.00,VWS V14.01,2013-01-27 13:52:00,
2013-01-27 08:57:00,67.9,61.2,30.24,North,9,1.0,1.0,79,0.00,,FEW050,0.00,357.00,VWS V14.01,2013-01-27 13:57:00,
2013-01-27 09:02:00,68.5,61.7,30.24,North,9,2.0,2.0,79,0.00,,CLR,0.00,371.00,VWS V14.01,2013-01-27 14:02:00,
2013-01-27 09:07:00,69.0,61.9,30.24,North,10,1.0,2.0,78,0.00,,CLR,0.00,387.00,VWS V14.01,2013-01-27 14:07:00,
2013-01-27 09:12:00,69.5,62.0,30.24,North,10,1.0,1.0,77,0.00,,CLR,0.00,408.00,VWS V14.01,2013-01-27 14:12:00,
2013-01-27 09:17:00,70.2,61.9,30.24,North,10,5.0,5.0,75,0.00,,CLR,0.00,424.00,VWS V14.01,2013-01-27 14:17:00,
2013-01-27 09:22:00,70.8,62.5,30.24,NNE,15,6.0,7.0,75,0.00,,CLR,0.00,436.00,VWS V14.01,2013-01-27 14:22:00,
2013-01-27 09:27:00,71.0,61.9,30.24,NNE,27,3.0,4.0,73,0.00,,CLR,0.00,452.00,VWS V14.01,2013-01-27 14:27:00,
2013-01-27 09:32:00,71.5,62.4,30.24,NNE,28,1.0,2.0,73,0.00,,CLR,0.00,466.00,VWS V14.01,2013-01-27 14:32:00,
2013-01-27 09:37:00,72.1,62.6,30.24,NNE,31,3.0,3.0,72,0.00,,CLR,0.00,478.00,VWS V14.01,2013-01-27 14:37:00,
2013-01-27 09:42:00,72.3,62.4,30.25,NNE,27,3.0,4.0,71,0.00,,CLR,0.00,494.00,VWS V14.01,2013-01-27 14:42:00,
2013-01-27 09:47:00,72.7,62.8,30.25,NE,43,4.0,5.0,71,0.00,,CLR,0.00,503.00,VWS V14.01,2013-01-27 14:47:00,
2013-01-27 09:52:00,73.0,62.2,30.25,NNE,28,1.0,2.0,69,0.00,,CLR,0.00,519.00,VWS V14.01,2013-01-27 14:52:00,
2013-01-27 09:57:00,73.5,62.7,30.25,NNE,12,6.0,6.0,69,0.00,,CLR,0.00,533.00,VWS V14.01,2013-01-27 14:57:00,
2013-01-27 10:02:00,73.9,62.3,30.25,ENE,57,3.0,3.0,67,0.00,,FEW070,0.00,545.00,VWS V14.01,2013-01-27 15:02:00,
2013-01-27 10:07:00,73.8,62.2,30.25,NE,40,5.0,6.0,67,0.00,,FEW070,0.00,561.00,VWS V14.01,2013-01-27 15:07:00,
2013-01-27 10:12:00,73.9,62.3,30.25,North,11,4.0,4.0,67,0.00,,FEW070,0.00,571.00,VWS V14.01,2013-01-27 15:12:00,
2013-01-27 10:17:00,74.0,62.8,30.25,NNE,28,2.0,3.0,68,0.00,,FEW070,0.00,587.00,VWS V14.01,2013-01-27 15:17:00,
2013-01-27 10:22:00,74.2,62.1,30.25,NNE,19,4.0,5.0,66,0.00,,FEW070,0.00,598.00,VWS V14.01,2013-01-27 15:22:00,
2013-01-27 10:27:00,74.3,62.6,30.25,NE,38,3.0,5.0,67,0.00,,FEW070,0.00,613.00,VWS V14.01,2013-01-27 15:27:00,
2013-01-27 10:32:00,74.5,62.4,30.25,NNE,19,4.0,4.0,66,0.00,,FEW070,0.00,633.00,VWS V14.01,2013-01-27 15:32:00,
2013-01-27 10:37:00,74.3,61.3,30.25,NE,38,5.0,6.0,64,0.00,,FEW070,0.00,633.00,VWS V14.01,2013-01-27 15:37:00,
2013-01-27 10:42:00,74.7,62.2,30.25,NE,49,6.0,7.0,65,0.00,,FEW070,0.00,686.00,VWS V14.01,2013-01-27 15:42:00,
2013-01-27 10:47:00,74.6,61.6,30.25,ENE,65,6.0,7.0,64,0.00,,FEW070,0.00,666.00,VWS V14.01,2013-01-27 15:47:00,
2013-01-27 10:52:00,74.9,62.3,30.25,NNE,15,4.0,4.0,65,0.00,,FEW070,0.00,675.00,VWS V14.01,2013-01-27 15:52:00,
2013-01-27 10:57:00,75.2,62.6,30.25,ENE,60,4.0,7.0,65,0.00,,SCT050,0.00,733.00,VWS V14.01,2013-01-27 15:57:00,
2013-01-27 11:02:00,75.0,62.5,30.25,NE,48,5.0,5.0,65,0.00,,SCT050,0.00,234.00,VWS V14.01,2013-01-27 16:02:00,
2013-01-27 11:07:00,74.8,62.7,30.25,ENE,57,3.0,5.0,66,0.00,,SCT050,0.00,763.00,VWS V14.01,2013-01-27 16:07:00,
2013-01-27 11:12:00,75.1,62.5,30.25,NNE,20,6.0,8.0,65,0.00,,SCT050,0.00,777.00,VWS V14.01,2013-01-27 16:12:00,
2013-01-27 11:17:00,75.3,62.7,30.25,ENE,59,6.0,7.0,65,0.00,,SCT050,0.00,795.00,VWS V14.01,2013-01-27 16:17:00,
2013-01-27 11:22:00,75.6,62.6,30.25,NE,41,3.0,6.0,64,0.00,,SCT050,0.00,786.00,VWS V14.01,2013-01-27 16:22:00,
2013-01-27 11:27:00,76.0,63.4,30.24,NE,38,3.0,3.0,65,0.00,,SCT050,0.00,773.00,VWS V14.01,2013-01-27 16:27:00,
2013-01-27 11:32:00,75.8,62.3,30.24,NE,48,5.0,7.0,63,0.00,,SCT050,0.00,663.00,VWS V14.01,2013-01-27 16:32:00,
2013-01-27 11:37:00,75.7,61.8,30.24,ENE,59,4.0,4.0,62,0.00,,SCT050,0.00,232.00,VWS V14.01,2013-01-27 16:37:00,
2013-01-27 11:42:00,75.4,62.4,30.24,East,92,9.0,11.0,64,0.00,,SCT050,0.00,772.00,VWS V14.01,2013-01-27 16:42:00,
2013-01-27 11:47:00,75.5,62.5,30.24,NNE,17,9.0,12.0,64,0.00,,SCT050,0.00,773.00,VWS V14.01,2013-01-27 16:47:00,
2013-01-27 11:52:00,74.7,61.7,30.24,ENE,62,3.0,4.0,64,0.00,,SCT050,0.00,218.00,VWS V14.01,2013-01-27 16:52:00,
2013-01-27 11:57:00,75.1,61.7,30.23,ENE,68,4.0,6.0,63,0.00,,SCT050,0.00,782.00,VWS V14.01,2013-01-27 16:57:00,
2013-01-27 12:02:00,75.6,62.6,30.23,ENE,65,10.0,10.0,64,0.00,,SCT050,0.00,814.00,VWS V14.01,2013-01-27 17:02:00,
2013-01-27 12:07:00,75.9,62.0,30.23,NNE,22,6.0,6.0,62,0.00,,SCT050,0.00,851.00,VWS V14.01,2013-01-27 17:07:00,
2013-01-27 12:12:00,75.5,61.6,30.23,ENE,58,9.0,9.0,62,0.00,,SCT050,0.00,784.00,VWS V14.01,2013-01-27 17:12:00,
2013-01-27 12:17:00,75.6,62.1,30.23,NE,56,10.0,10.0,63,0.00,,SCT050,0.00,795.00,VWS V14.01,2013-01-27 17:17:00,
2013-01-27 12:22:00,75.6,61.7,30.23,North,5,10.0,10.0,62,0.00,,SCT050,0.00,775.00,VWS V14.01,2013-01-27 17:22:00,
2013-01-27 12:27:00,76.0,62.0,30.23,ENE,71,7.0,11.0,62,0.00,,SCT050,0.00,812.00,VWS V14.01,2013-01-27 17:27:00,
2013-01-27 12:32:00,75.9,61.5,30.22,ENE,72,9.0,13.0,61,0.00,,SCT050,0.00,844.00,VWS V14.01,2013-01-27 17:32:00,
2013-01-27 12:37:00,75.3,61.8,30.22,NE,53,3.0,4.0,63,0.00,,SCT050,0.00,336.00,VWS V14.01,2013-01-27 17:37:00,
2013-01-27 12:42:00,75.1,61.7,30.22,NE,42,10.0,10.0,63,0.00,,SCT050,0.00,448.00,VWS V14.01,2013-01-27 17:42:00,
2013-01-27 12:47:00,75.0,61.6,30.22,ENE,63,6.0,7.0,63,0.00,,SCT050,0.00,835.00,VWS V14.01,2013-01-27 17:47:00,
2013-01-27 12:52:00,75.0,62.0,30.22,NNE,22,7.0,8.0,64,0.00,,SCT050,0.00,221.00,VWS V14.01,2013-01-27 17:52:00,
2013-01-27 12:57:00,74.8,61.4,30.21,NNE,16,7.0,7.0,63,0.00,,SCT050,0.00,821.00,VWS V14.01,2013-01-27 17:57:00,
2013-01-27 13:02:00,76.0,62.0,30.21,East,81,5.0,6.0,62,0.00,,SCT050,0.00,823.00,VWS V14.01,2013-01-27 18:02:00,
2013-01-27 13:07:00,75.9,61.5,30.21,ENE,67,5.0,5.0,61,0.00,,SCT050,0.00,821.00,VWS V14.01,2013-01-27 18:07:00,
2013-01-27 13:12:00,75.9,61.5,30.21,NNE,26,4.0,4.0,61,0.00,,SCT050,0.00,821.00,VWS V14.01,2013-01-27 18:12:00,
2013-01-27 13:17:00,76.2,61.3,30.20,NE,53,6.0,6.0,60,0.00,,SCT050,0.00,840.00,VWS V14.01,2013-01-27 18:17:00,
2013-01-27 13:22:00,75.5,60.7,30.20,NNE,17,6.0,6.0,60,0.00,,SCT050,0.00,777.00,VWS V14.01,2013-01-27 18:22:00,
2013-01-27 13:27:00,75.9,62.0,30.20,NNE,32,5.0,9.0,62,0.00,,SCT050,0.00,807.00,VWS V14.01,2013-01-27 18:27:00,
2013-01-27 13:32:00,76.6,61.2,30.20,ESE,102,7.0,11.0,59,0.00,,SCT050,0.00,779.00,VWS V14.01,2013-01-27 18:32:00,
2013-01-27 13:37:00,76.4,61.5,30.20,NE,55,2.0,2.0,60,0.00,,SCT050,0.00,784.00,VWS V14.01,2013-01-27 18:37:00,
2013-01-27 13:42:00,76.6,61.7,30.20,NNE,22,6.0,8.0,60,0.00,,SCT050,0.00,846.00,VWS V14.01,2013-01-27 18:42:00,
2013-01-27 13:47:00,75.6,61.7,30.20,NNE,32,9.0,10.0,62,0.00,,SCT050,0.00,861.00,VWS V14.01,2013-01-27 18:47:00,
2013-01-27 13:52:00,75.0,61.1,30.20,NNE,19,5.0,10.0,62,0.00,,SCT050,0.00,258.00,VWS V14.01,2013-01-27 18:52:00,
2013-01-27 13:57:00,74.6,60.7,30.20,ENE,61,5.0,10.0,62,0.00,,SCT050,0.00,237.00,VWS V14.01,2013-01-27 18:57:00,
2013-01-27 14:02:00,74.7,60.4,30.20,East,96,7.0,9.0,61,0.00,,SCT050,0.00,234.00,VWS V14.01,2013-01-27 19:02:00,
2013-01-27 14:07:00,74.9,60.6,30.20,NE,53,3.0,11.0,61,0.00,,FEW050,0.00,250.00,VWS V14.01,2013-01-27 19:07:00,
2013-01-27 14:12:00,75.4,61.5,30.20,ENE,72,4.0,8.0,62,0.00,,FEW050,0.00,737.00,VWS V14.01,2013-01-27 19:12:00,
2013-01-27 14:17:00,75.7,61.3,30.20,NE,46,6.0,10.0,61,0.00,,FEW050,0.00,722.00,VWS V14.01,2013-01-27 19:17:00,
2013-01-27 14:22:00,76.1,62.2,30.19,NE,45,5.0,8.0,62,0.00,,FEW050,0.00,680.00,VWS V14.01,2013-01-27 19:22:00,
2013-01-27 14:27:00,75.6,60.8,30.19,East,87,6.0,11.0,60,0.00,,FEW050,0.00,650.00,VWS V14.01,2013-01-27 19:27:00,
2013-01-27 14:32:00,75.9,61.0,30.19,NE,55,5.0,8.0,60,0.00,,FEW050,0.00,643.00,VWS V14.01,2013-01-27 19:32:00,
2013-01-27 14:37:00,75.6,60.8,30.19,ENE,63,10.0,13.0,60,0.00,,FEW050,0.00,635.00,VWS V14.01,2013-01-27 19:37:00,
2013-01-27 14:42:00,75.7,60.8,30.19,NNE,32,7.0,9.0,60,0.00,,FEW050,0.00,619.00,VWS V14.01,2013-01-27 19:42:00,
2013-01-27 14:47:00,75.2,60.8,30.19,NE,49,4.0,8.0,61,0.00,,FEW050,0.00,610.00,VWS V14.01,2013-01-27 19:47:00,
2013-01-27 14:52:00,75.7,60.8,30.19,ENE,63,6.0,12.0,60,0.00,,FEW050,0.00,520.00,VWS V14.01,2013-01-27 19:52:00,
2013-01-27 14:57:00,75.8,60.0,30.19,ENE,66,7.0,11.0,58,0.00,,FEW050,0.00,599.00,VWS V14.01,2013-01-27 19:57:00,
2013-01-27 15:02:00,75.9,60.6,30.19,NNE,28,6.0,9.0,59,0.00,,FEW070,0.00,589.00,VWS V14.01,2013-01-27 20:02:00,
2013-01-27 15:07:00,75.8,60.5,30.19,North,5,12.0,12.0,59,0.00,,FEW070,0.00,566.00,VWS V14.01,2013-01-27 20:07:00,
2013-01-27 15:12:00,75.3,60.0,30.19,East,83,7.0,13.0,59,0.00,,FEW070,0.00,548.00,VWS V14.01,2013-01-27 20:12:00,
2013-01-27 15:17:00,75.2,59.4,30.19,NE,41,1.0,14.0,58,0.00,,FEW070,0.00,527.00,VWS V14.01,2013-01-27 20:17:00,
2013-01-27 15:22:00,75.4,60.1,30.19,ENE,78,5.0,11.0,59,0.00,,FEW070,0.00,515.00,VWS V14.01,2013-01-27 20:22:00,
2013-01-27 15:27:00,75.3,60.0,30.19,NE,34,6.0,9.0,59,0.00,,FEW070,0.00,501.00,VWS V14.01,2013-01-27 20:27:00,
2013-01-27 15:32:00,75.6,60.3,30.19,ENE,70,0.0,12.0,59,0.00,,FEW070,0.00,489.00,VWS V14.01,2013-01-27 20:32:00,
2013-01-27 15:37:00,75.8,60.0,30.19,ENE,74,4.0,12.0,58,0.00,,FEW070,0.00,478.00,VWS V14.01,2013-01-27 20:37:00,
2013-01-27 15:42:00,75.3,60.0,30.19,ENE,70,7.0,12.0,59,0.00,,FEW070,0.00,466.00,VWS V14.01,2013-01-27 20:42:00,
2013-01-27 15:47:00,75.1,60.8,30.19,ENE,62,6.0,13.0,61,0.00,,FEW070,0.00,446.00,VWS V14.01,2013-01-27 20:47:00,
2013-01-27 15:52:00,75.0,60.2,30.19,NNE,17,5.0,11.0,60,0.00,,FEW070,0.00,434.00,VWS V14.01,2013-01-27 20:52:00,
2013-01-27 15:57:00,74.9,60.6,30.19,ENE,65,5.0,15.0,61,0.00,,FEW070,0.00,418.00,VWS V14.01,2013-01-27 20:57:00,
2013-01-27 16:02:00,74.9,60.6,30.19,East,84,2.0,9.0,61,0.00,,FEW070,0.00,401.00,VWS V14.01,2013-01-27 21:02:00,
2013-01-27 16:07:00,74.9,60.1,30.19,East,93,5.0,9.0,60,0.00,,FEW070,0.00,388.00,VWS V14.01,2013-01-27 21:07:00,
2013-01-27 16:12:00,75.0,60.2,30.19,ENE,65,5.0,9.0,60,0.00,,FEW100,0.00,374.00,VWS V14.01,2013-01-27 21:12:00,
2013-01-27 16:17:00,74.9,59.6,30.20,NNE,17,7.0,11.0,59,0.00,,FEW100,0.00,355.00,VWS V14.01,2013-01-27 21:17:00,
2013-01-27 16:22:00,74.9,60.1,30.19,East,81,6.0,9.0,60,0.00,,FEW100,0.00,339.00,VWS V14.01,2013-01-27 21:22:00,
2013-01-27 16:27:00,74.8,60.0,30.19,NNE,30,4.0,7.0,60,0.00,,FEW100,0.00,318.00,VWS V14.01,2013-01-27 21:27:00,
2013-01-27 16:32:00,74.8,59.5,30.19,NE,34,6.0,10.0,59,0.00,,FEW100,0.00,299.00,VWS V14.01,2013-01-27 21:32:00,
2013-01-27 16:37:00,74.6,59.3,30.20,ENE,59,4.0,11.0,59,0.00,,FEW100,0.00,283.00,VWS V14.01,2013-01-27 21:37:00,
2013-01-27 16:42:00,74.3,59.5,30.20,ENE,65,5.0,11.0,60,0.00,,FEW100,0.00,265.00,VWS V14.01,2013-01-27 21:42:00,
2013-01-27 16:47:00,74.4,59.6,30.20,NE,55,4.0,7.0,60,0.00,,FEW100,0.00,181.00,VWS V14.01,2013-01-27 21:47:00,
2013-01-27 16:52:00,74.3,60.5,30.20,ENE,57,4.0,9.0,62,0.00,,FEW100,0.00,227.00,VWS V14.01,2013-01-27 21:52:00,
2013-01-27 16:57:00,74.2,60.4,30.20,NE,51,6.0,11.0,62,0.00,,FEW100,0.00,211.00,VWS V14.01,2013-01-27 21:57:00,
2013-01-27 17:02:00,74.0,60.6,30.20,ENE,61,4.0,10.0,63,0.00,,FEW100,0.00,197.00,VWS V14.01,2013-01-27 22:02:00,
2013-01-27 17:07:00,74.2,60.8,30.20,ENE,70,4.0,6.0,63,0.00,,FEW100,0.00,179.00,VWS V14.01,2013-01-27 22:07:00,
2013-01-27 17:12:00,73.9,60.5,30.21,ENE,57,7.0,7.0,63,0.00,,FEW100,0.00,127.00,VWS V14.01,2013-01-27 22:12:00,
2013-01-27 17:17:00,73.6,60.7,30.21,NE,34,4.0,7.0,64,0.00,,FEW080,0.00,123.00,VWS V14.01,2013-01-27 22:17:00,
2013-01-27 17:22:00,73.5,61.0,30.21,East,82,3.0,7.0,65,0.00,,FEW080,0.00,118.00,VWS V14.01,2013-01-27 22:22:00,
2013-01-27 17:27:00,73.3,60.8,30.21,NE,55,4.0,7.0,65,0.00,,FEW080,0.00,114.00,VWS V14.01,2013-01-27 22:27:00,
2013-01-27 17:32:00,73.1,61.1,30.21,North,11,5.0,9.0,66,0.00,,FEW080,0.00,104.00,VWS V14.01,2013-01-27 22:32:00,
2013-01-27 17:37:00,73.0,60.5,30.21,NE,41,3.0,9.0,65,0.00,,FEW080,0.00,98.00,VWS V14.01,2013-01-27 22:37:00,
2013-01-27 17:42:00,72.9,60.5,30.22,ENE,58,5.0,7.0,65,0.00,,FEW080,0.00,93.00,VWS V14.01,2013-01-27 22:42:00,
2013-01-27 17:47:00,72.8,60.4,30.22,ENE,62,5.0,7.0,65,0.00,,FEW080,0.00,86.00,VWS V14.01,2013-01-27 22:47:00,
2013-01-27 17:52:00,72.7,59.8,30.22,NE,52,3.0,10.0,64,0.00,,FEW080,0.00,83.00,VWS V14.01,2013-01-27 22:52:00,
2013-01-27 17:57:00,72.5,60.1,30.22,NE,41,3.0,7.0,65,0.00,,FEW080,0.00,79.00,VWS V14.01,2013-01-27 22:57:00,
2013-01-27 18:02:00,72.4,60.0,30.22,ENE,59,2.0,7.0,65,0.00,,FEW035,0.00,77.00,VWS V14.01,2013-01-27 23:02:00,
2013-01-27 18:07:00,72.2,59.8,30.22,ENE,61,2.0,7.0,65,0.00,,FEW035,0.00,76.00,VWS V14.01,2013-01-27 23:07:00,
2013-01-27 18:12:00,72.1,60.1,30.22,NE,44,5.0,7.0,66,0.00,,FEW035,0.00,74.00,VWS V14.01,2013-01-27 23:12:00,
2013-01-27 18:17:00,72.0,60.0,30.22,NE,51,3.0,5.0,66,0.00,,FEW035,0.00,74.00,VWS V14.01,2013-01-27 23:17:00,
2013-01-27 18:22:00,71.8,60.3,30.22,NE,52,2.0,4.0,67,0.00,,FEW035,0.00,74.00,VWS V14.01,2013-01-27 23:22:00,
2013-01-27 18:27:00,71.7,60.2,30.22,ENE,61,1.0,5.0,67,0.00,,FEW035,0.00,74.00,VWS V14.01,2013-01-27 23:27:00,
2013-01-27 18:32:00,71.6,60.1,30.22,NE,55,3.0,4.0,67,0.00,,FEW035,0.00,74.00,VWS V14.01,2013-01-27 23:32:00,
2013-01-27 18:37:00,71.5,60.4,30.22,ENE,58,1.0,3.0,68,0.00,,FEW035,0.00,74.00,VWS V14.01,2013-01-27 23:37:00,
2013-01-27 18:42:00,71.3,60.2,30.22,ENE,58,3.0,4.0,68,0.00,,FEW035,0.00,74.00,VWS V14.01,2013-01-27 23:42:00,
2013-01-27 18:47:00,71.3,60.6,30.22,ENE,58,0.0,3.0,69,0.00,,FEW035,0.00,74.00,VWS V14.01,2013-01-27 23:47:00,
2013-01-27 18:52:00,71.1,60.4,30.23,ENE,58,0.0,2.0,69,0.00,,FEW035,0.00,74.00,VWS V14.01,2013-01-27 23:52:00,
2013-01-27 18:57:00,71.0,60.7,30.23,ENE,58,2.0,3.0,70,0.00,,FEW035,0.00,74.00,VWS V14.01,2013-01-27 23:57:00,
2013-01-27 19:02:00,70.8,60.5,30.23,ENE,58,1.0,2.0,70,0.00,,FEW035,0.00,74.00,VWS V14.01,2013-01-28 00:02:00,
2013-01-27 19:07:00,70.8,60.5,30.23,ENE,58,0.0,2.0,70,0.00,,FEW035,0.00,74.00,VWS V14.01,2013-01-28 00:07:00,
2013-01-27 19:12:00,70.6,60.8,30.23,ENE,58,1.0,3.0,71,0.00,,FEW035,0.00,74.00,VWS V14.01,2013-01-28 00:12:00,
2013-01-27 19:17:00,70.6,60.8,30.23,ENE,58,0.0,1.0,71,0.00,,FEW035,0.00,74.00,VWS V14.01,2013-01-28 00:17:00,
2013-01-27 19:22:00,70.5,60.7,30.23,ENE,58,0.0,1.0,71,0.00,,FEW035,0.00,74.00,VWS V14.01,2013-01-28 00:22:00,
2013-01-27 19:27:00,70.4,61.0,30.24,ENE,58,0.0,1.0,72,0.00,,FEW035,0.00,74.00,VWS V14.01,2013-01-28 00:27:00,
2013-01-27 19:32:00,70.3,60.9,30.23,ENE,58,0.0,0.0,72,0.00,,FEW035,0.00,74.00,VWS V14.01,2013-01-28 00:32:00,
2013-01-27 19:37:00,70.0,61.0,30.23,ENE,58,0.0,0.0,73,0.00,,FEW035,0.00,74.00,VWS V14.01,2013-01-28 00:37:00,
2013-01-27 19:42:00,69.8,61.2,30.23,ENE,58,0.0,0.0,74,0.00,,FEW035,0.00,74.00,VWS V14.01,2013-01-28 00:42:00,
2013-01-27 19:47:00,69.7,61.0,30.24,ENE,58,0.0,1.0,74,0.00,,FEW035,0.00,74.00,VWS V14.01,2013-01-28 00:47:00,
2013-01-27 19:52:00,69.6,61.3,30.24,ENE,58,0.0,1.0,75,0.00,,FEW035,0.00,74.00,VWS V14.01,2013-01-28 00:52:00,
2013-01-27 19:57:00,69.5,61.2,30.24,ENE,58,0.0,1.0,75,0.00,,FEW035,0.00,74.00,VWS V14.01,2013-01-28 00:57:00,
2013-01-27 20:02:00,69.5,61.2,30.24,ENE,58,0.0,1.0,75,0.00,,FEW035,0.00,74.00,VWS V14.01,2013-01-28 01:02:00,
2013-01-27 20:07:00,69.4,61.5,30.24,ENE,58,1.0,2.0,76,0.00,,SCT035,0.00,74.00,VWS V14.01,2013-01-28 01:07:00,
2013-01-27 20:12:00,69.4,61.5,30.24,ENE,58,2.0,3.0,76,0.00,,SCT035,0.00,74.00,VWS V14.01,2013-01-28 01:12:00,
2013-01-27 20:17:00,69.5,61.6,30.24,ENE,58,2.0,3.0,76,0.00,,SCT035,0.00,74.00,VWS V14.01,2013-01-28 01:17:00,
2013-01-27 20:22:00,69.6,62.1,30.24,ENE,58,2.0,3.0,77,0.00,,SCT035,0.00,74.00,VWS V14.01,2013-01-28 01:22:00,
2013-01-27 20:27:00,69.9,62.4,30.24,ENE,58,0.0,3.0,77,0.00,,SCT035,0.00,74.00,VWS V14.01,2013-01-28 01:27:00,
2013-01-27 20:32:00,70.2,62.7,30.24,ENE,65,3.0,5.0,77,0.00,,SCT035,0.00,74.00,VWS V14.01,2013-01-28 01:32:00,
2013-01-27 20:37:00,70.4,62.8,30.24,ENE,72,1.0,4.0,77,0.00,,SCT035,0.00,74.00,VWS V14.01,2013-01-28 01:37:00,
2013-01-27 20:42:00,70.5,63.0,30.25,ENE,63,2.0,4.0,77,0.00,,SCT035,0.00,74.00,VWS V14.01,2013-01-28 01:42:00,
2013-01-27 20:47:00,70.7,63.1,30.25,ENE,74,1.0,4.0,77,0.00,,SCT035,0.00,74.00,VWS V14.01,2013-01-28 01:47:00,
2013-01-27 20:52:00,70.7,63.1,30.25,ENE,59,2.0,4.0,77,0.00,,SCT035,0.00,72.00,VWS V14.01,2013-01-28 01:52:00,
2013-01-27 20:57:00,70.7,63.1,30.25,ENE,59,1.0,3.0,77,0.00,,SCT035,0.00,74.00,VWS V14.01,2013-01-28 01:57:00,
2013-01-27 21:02:00,70.6,63.0,30.25,ENE,60,0.0,4.0,77,0.00,,SCT035,0.00,74.00,VWS V14.01,2013-01-28 02:02:00,
2013-01-27 21:07:00,70.6,63.0,30.25,ENE,60,2.0,3.0,77,0.00,,SCT035,0.00,74.00,VWS V14.01,2013-01-28 02:07:00,
2013-01-27 21:12:00,70.6,63.0,30.25,ENE,63,0.0,4.0,77,0.00,,SCT035,0.00,74.00,VWS V14.01,2013-01-28 02:12:00,
2013-01-27 21:17:00,70.7,63.1,30.25,ENE,63,1.0,4.0,77,0.00,,SCT035,0.00,74.00,VWS V14.01,2013-01-28 02:17:00,
2013-01-27 21:22:00,70.7,63.1,30.25,ENE,58,2.0,4.0,77,0.00,,SCT035,0.00,74.00,VWS V14.01,2013-01-28 02:22:00,
2013-01-27 21:27:00,70.7,63.1,30.25,ENE,65,2.0,4.0,77,0.00,,SCT035,0.00,74.00,VWS V14.01,2013-01-28 02:27:00,
2013-01-27 21:32:00,70.8,63.2,30.25,ENE,69,1.0,4.0,77,0.00,,SCT035,0.00,74.00,VWS V14.01,2013-01-28 02:32:00,
2013-01-27 21:37:00,70.8,63.2,30.25,East,80,0.0,3.0,77,0.00,,SCT035,0.00,74.00,VWS V14.01,2013-01-28 02:37:00,
2013-01-27 21:42:00,70.8,63.2,30.25,ENE,75,1.0,4.0,77,0.00,,SCT035,0.00,74.00,VWS V14.01,2013-01-28 02:42:00,
2013-01-27 21:47:00,70.8,63.2,30.25,ENE,65,0.0,3.0,77,0.00,,SCT035,0.00,74.00,VWS V14.01,2013-01-28 02:47:00,
2013-01-27 21:52:00,70.8,63.2,30.25,ENE,65,3.0,4.0,77,0.00,,SCT035,0.00,74.00,VWS V14.01,2013-01-28 02:52:00,
2013-01-27 21:57:00,70.8,63.2,30.25,ENE,65,1.0,4.0,77,0.00,,SCT035,0.00,74.00,VWS V14.01,2013-01-28 02:57:00,
2013-01-27 22:02:00,70.8,63.2,30.25,NE,55,2.0,3.0,77,0.00,,SCT035,0.00,74.00,VWS V14.01,2013-01-28 03:02:00,
2013-01-27 22:07:00,70.8,63.2,30.25,ENE,74,2.0,4.0,77,0.00,,SCT035,0.00,74.00,VWS V14.01,2013-01-28 03:07:00,
2013-01-27 22:12:00,70.8,63.2,30.25,ENE,60,1.0,3.0,77,0.00,,SCT035,0.00,74.00,VWS V14.01,2013-01-28 03:12:00,
2013-01-27 22:17:00,70.7,63.5,30.25,ENE,59,0.0,3.0,78,0.00,,SCT035,0.00,74.00,VWS V14.01,2013-01-28 03:17:00,
2013-01-27 22:22:00,70.6,63.4,30.25,ENE,64,1.0,5.0,78,0.00,,SCT035,0.00,74.00,VWS V14.01,2013-01-28 03:22:00,
2013-01-27 22:27:00,70.5,63.3,30.25,ENE,63,0.0,4.0,78,0.00,,SCT035,0.00,74.00,VWS V14.01,2013-01-28 03:27:00,
2013-01-27 22:32:00,70.5,63.3,30.25,ENE,62,1.0,4.0,78,0.00,,SCT035,0.00,74.00,VWS V14.01,2013-01-28 03:32:00,
2013-01-27 22:37:00,70.4,63.2,30.25,ENE,63,1.0,3.0,78,0.00,,SCT035,0.00,74.00,VWS V14.01,2013-01-28 03:37:00,
2013-01-27 22:42:00,70.3,63.5,30.25,ENE,63,2.0,4.0,79,0.00,,SCT035,0.00,74.00,VWS V14.01,2013-01-28 03:42:00,
2013-01-27 22:47:00,70.2,63.4,30.25,NE,55,1.0,4.0,79,0.00,,SCT035,0.00,74.00,VWS V14.01,2013-01-28 03:47:00,
2013-01-27 22:52:00,70.1,63.3,30.25,NE,55,3.0,3.0,79,0.00,,SCT035,0.00,74.00,VWS V14.01,2013-01-28 03:52:00,
2013-01-27 22:57:00,70.2,63.4,30.25,NE,47,3.0,7.0,79,0.00,,SCT035,0.00,74.00,VWS V14.01,2013-01-28 03:57:00,
2013-01-27 23:02:00,70.4,63.6,30.25,NE,37,4.0,6.0,79,0.00,,SCT035,0.00,74.00,VWS V14.01,2013-01-28 04:02:00,
2013-01-27 23:07:00,70.5,63.7,30.25,ENE,63,0.0,5.0,79,0.00,,SCT035,0.00,74.00,VWS V14.01,2013-01-28 04:07:00,
2013-01-27 23:12:00,70.4,63.6,30.25,ENE,69,5.0,5.0,79,0.00,,SCT035,0.00,74.00,VWS V14.01,2013-01-28 04:12:00,
2013-01-27 23:17:00,70.5,63.7,30.24,ENE,63,2.0,7.0,79,0.00,,SCT035,0.00,74.00,VWS V14.01,2013-01-28 04:17:00,
2013-01-27 23:22:00,70.6,63.8,30.24,ENE,65,3.0,6.0,79,0.00,,SCT035,0.00,74.00,VWS V14.01,2013-01-28 04:22:00,
2013-01-27 23:27:00,70.6,63.4,30.24,ENE,63,2.0,8.0,78,0.00,,SCT035,0.00,74.00,VWS V14.01,2013-01-28 04:27:00,
2013-01-27 23:32:00,70.6,63.4,30.24,ENE,67,5.0,10.0,78,0.00,,SCT035,0.00,74.00,VWS V14.01,2013-01-28 04:32:00,
2013-01-27 23:37:00,70.6,63.4,30.24,East,86,4.0,5.0,78,0.00,,SCT035,0.00,74.00,VWS V14.01,2013-01-28 04:37:00,
2013-01-27 23:42:00,70.6,63.4,30.24,ENE,62,3.0,6.0,78,0.00,,SCT035,0.00,74.00,VWS V14.01,2013-01-28 04:42:00,
2013-01-27 23:47:00,70.6,63.4,30.24,NE,53,2.0,6.0,78,0.00,,SCT035,0.00,74.00,VWS V14.01,2013-01-28 04:47:00,
2013-01-27 23:52:00,70.7,63.5,30.24,NE,51,2.0,6.0,78,0.00,,SCT035,0.00,74.00,VWS V14.01,2013-01-28 04:52:00,
2013-01-27 23:57:00,70.7,63.5,30.24,ENE,77,2.0,3.0,78,0.00,,SCT035,0.00,74.00,VWS V14.01,2013-01-28 04:57:00,